STARLINK-3831 (52332 NORAD) Tracking and Keplerian Element Data

This shows tracking and keplerian element data for the satellite.

Feedback or suggestion? Click here.




ElementValue
Catalog52332
NameSTARLINK-3831
Epoch Orbit130
Epoch Day167.08334491
Epoch Year2022
RAAN207.3135
Inclination53.2174
Eccentricity0.0001758
Argument of Perigee34.7822
Mean Anonmoly16.7658
Mean Motion15.30958132
Decay Rate-0.00714972
L11 52332U 22045B 22167.08334491 -.00714972 00000+0 -25543-1 0 9999
L22 52332 53.2174 207.3135 0001758 34.7822 16.7658 15.30958132 1301

Live tracking and technical data element details for STARLINK-3831 (NORAD 52332). STARLINK-3831 can be tracked NOW for your location showing map with azimuth and elevation plus other details from your city location.

Track the satellite on the map from your city or location and see movement details for azimuth, elevation, latitude, longitude, range, height, and movement on the map or in text.







IsCatalogInMostPopularTable: catalog: 52332, numindb: 1
Update: records affected: 1



GetName: 52332 STARLINK-3831

Hit Count: updated at: Mon, 27 Jun 2022 06:15:44 GMT